Location: Campestrin
(46.4667°N, 11.7167°E)
Time: 10:21:26
(UTC+00:00)

MetOp-A - Pass Details

Date: 18 April 2021
Orbit: 819 x 821 km, 98.5° (Epoch: 06 May)

Event Time Altitude Azimuth Distance (km) Brightness Sun altitude
Rises 18:32:57 0° 159° (SSE) 3,340 6.9 -5.3°
Reaches altitude 10° 18:35:17 10° 158° (SSE) 2,411 6.2 -5.7°
Maximum altitude 18:40:37 76° 74° (ENE) 850 4.2 -6.6°
Drops below altitude 10° 18:45:59 10° 349° (N) 2,427 7.1 -7.4°
Sets 18:48:20 0° 348° (NNW) 3,363 7.9 -7.8°
